Location: Audinghen
(50.8518°N, 1.6129°E)
Time: 21:18:07
(UTC+00:00)

IRS-1D - Pass Details

Date: 07 August 2020
Orbit: 741 x 816 km, 98.6° (Epoch: 22 September)

Event Time Altitude Azimuth Distance (km) Brightness Sun altitude
Rises 02:21:06 0° 15° (NNE) 3,211 8.1 -16.0°
Reaches altitude 10° 02:23:23 10° 15° (NNE) 2,290 7.1 -15.8°
Maximum altitude 02:28:26 89° 97° (E) 771 3.5 -15.3°
Enters shadow 02:31:55 21° 196° (SSW) 1,678 4.7 -15.0°
